SCP
0 0 0 0 0 0 0 0 0 0 0 0 -0 -0 -0 0 0 0 0 0 0 0 0 0 0 0 0 0 0 1 1 1 0 0 0 0 -0 -0
0 0 0 0 0 0 0 0 0 0 0 0 0 0 0 0 0 0 0 0 0 0 0 0 0 0 0 0 0 0 1 1 1 0 0 0 0 -0
0 0 0 0 0 0 0 0 0 0 0 0 0 0 0 0 0 0 0 0 0 0 0 0 0 0 0 0 0 0 0 0 0 0 0 0 0 0
0 0 0 0 0 0 0 0 0 0 0 0 0 0 0 0 -0 0 0 0 0 0 0 0 0 0 0 0 0 0 0 0 0 0 0 0 0 0
0 0 0 0 0 0 0 0 0 0 0 0 0 0 0 0 -0 -0 0 0 0 0 0 0 0 0 0 0 0 0 0 0 0 0 0 0 0 0
0 0 0 0 0 0 0 0 0 0 0 0 0 0 0 0 -0 -0 0 0 0 0 0 0 0 0 0 0 0 0 0 0 0 0 0 0 0 0
0 0 0 0 0 0 0 0 0 0 0 0 0 0 0 0 -0 -0 -0 0 0 0 0 0 0 0 0 0 0 0 0 0 0 0 0 0 0 0
0 0 0 0 0 0 0 0 0 0 0 0 0 0 0 -0 -0 -0 0 0 0 0 0 0 0 0 0 0 0 0 0 0 0 0 0 0 0 0
0 0 0 0 0 0 0 0 0 0 0 0 0 0 0 -0 -0 -0 0 0 0 0 0 0 0 0 0 0 0 0 0 0 0 0 0 0 0 0
0 0 0 0 0 0 0 0 0 0 0 0 0 0 0 -0 -0 -0 0 0 0 0 0 0 0 0 0 0 0 0 0 0 0 0 0 0 0 0
0 0 0 0 0 0 0 0 0 0 0 0 0 0 0 0 -0 0 0 0 0 0 0 0 0 0 0 0 0 0 0 0 0 0 0 0 0 0
0 0 0 0 0 0 0 0 0 0 0 0 0 0 0 0 -0 0 0 0 0 0 0 0 0 0 0 0 0 0 0 0 0 0 0 0 0 0
0 0 0 0 0 0 0 0 0 0 0 0 0 0 0 0 0 0 0 0 0 0 0 0 0 0 0 0 0 0 0 0 0 0 0 0 0 0
0 0 0 0 0 0 0 0 0 0 0 0 0 0 0 0 0 0 0 0 0 0 0 0 0 0 0 0 0 0 0 0 0 0 0 0 0 0
0 0 0 0 0 0 0 0 0 0 0 0 0 0 0 0 -0 0 0 0 0 0 0 0 0 0 0 0 0 0 0 0 0 0 0 0 0 0
0 0 0 0 0 0 0 0 0 0 0 0 0 0 0 -0 0 0 0 0 0 0 0 -0 0 0 0 0 0 0 0 0 0 0 0 0 0 0
0 0 0 0 0 0 0 0 0 0 0 0 0 0 -0 -0 0 0 0 0 0 0 0 0 0 0 0 0 0 0 0 0 0 0 0 0 0 0
0 0 0 0 0 0 0 0 0 0 0 0 0 0 -0 -0 0 0 0 0 0 0 0 0 0 0 0 0 0 0 0 0 0 0 0 0 0 0
0 0 0 0 0 0 0 0 0 0 0 0 0 0 0 -0 0 -0 0 0 0 0 0 0 0 0 0 0 0 0 0 0 0 0 0 0 0 0
0 0 0 0 0 0 0 0 0 0 0 0 0 0 0 0 0 0 -0 0 0 0 0 0 0 0 0 0 0 0 0 0 0 0 0 0 0 0
0 0 0 0 0 0 0 0 0 0 0 0 0 0 0 0 0 0 0 0 -0 0 0 0 0 0 0 0 0 0 0 0 0 0 0 0 0 0
0 0 0 0 0 0 0 0 0 0 0 0 0 0 0 0 0 0 0 -0 0 -0 -0 0 0 0 0 0 0 0 0 0 0 0 0 0 0 0
0 0 0 0 0 0 0 0 0 0 0 0 0 0 0 0 0 0 0 0 -0 0 0 0 -0 -0 0 0 0 0 0 0 0 0 0 0 0 0
Wind_Speed_500mb
28 31 30 28 27 27 27 29 38 41 57 60 68 67 70 65 62 51 57 64 59 61 65 69 97 94 93 76 82 81 76 75 77 77 75 71 69 65
29 31 29 33 30 33 32 32 31 41 43 62 64 71 73 71 58 56 48 60 64 63 65 68 84 84 90 85 76 75 77 76 79 80 79 77 75 72
28 30 35 34 36 38 38 37 34 40 56 66 59 77 78 71 60 56 54 51 64 69 63 65 76 76 84 85 81 82 80 78 79 80 79 78 77 75
31 30 36 39 40 40 43 44 42 41 53 63 75 74 71 78 75 64 58 53 57 69 68 69 70 79 79 86 87 89 86 77 75 81 81 79 75 74
27 31 33 36 41 43 46 47 46 49 53 64 70 70 79 80 83 79 69 60 59 62 70 69 78 79 83 84 93 88 88 83 75 76 77 77 77 73
28 27 34 40 43 45 47 49 48 50 54 62 71 79 88 83 83 89 85 68 65 58 66 74 74 83 89 85 93 95 90 88 79 76 76 74 75 76
28 34 40 39 40 40 47 51 51 52 54 62 69 79 91 89 86 89 81 92 82 64 66 73 77 76 94 88 97 95 99 85 79 76 74 75 73 70
39 43 50 44 39 37 43 44 43 50 55 57 57 71 75 78 88 84 90 80 88 69 59 74 76 78 77 83 98 89 92 77 75 76 74 74 73 69
42 45 42 44 39 36 38 38 42 44 47 46 57 65 71 82 91 87 92 87 88 87 69 62 57 71 75 76 83 81 96 70 74 70 65 68 70 66
41 30 34 41 36 36 41 41 44 49 47 44 53 63 72 89 90 83 90 90 91 86 74 80 64 69 66 70 68 71 72 74 72 69 66 64 65 62
41 43 34 34 38 38 37 46 54 51 52 44 50 61 76 88 93 88 90 83 87 86 77 72 68 67 61 62 69 69 73 79 69 69 67 61 60 58
46 45 32 31 34 37 42 51 58 61 57 56 58 70 77 95 94 78 86 64 71 57 75 68 68 67 59 61 58 57 64 64 61 59 59 58 58 58
44 34 36 35 36 41 48 55 60 59 60 60 62 69 78 92 107 91 80 37 65 62 20 44 63 67 64 20 57 56 51 59 62 65 58 56 67 64
32 36 38 34 34 41 46 51 60 58 52 50 48 59 84 100 106 91 73 31 36 56 61 40 40 57 65 66 33 33 48 52 62 67 64 58 61 65
31 32 33 34 36 35 42 54 56 44 40 41 40 49 71 91 96 92 75 13 20 29 61 45 52 42 57 71 65 52 50 41 52 52 61 66 67 69
28 30 26 26 31 34 44 47 39 36 36 38 34 39 59 80 90 96 89 59 2 18 38 70 44 41 44 50 56 55 52 52 47 47 61 63 68 72
26 21 22 25 30 42 40 27 28 28 29 33 31 36 45 59 81 87 92 79 69 16 19 45 52 45 45 44 41 43 43 47 51 49 52 52 68 73
19 17 20 28 33 22 21 20 24 25 28 30 32 38 38 49 63 76 82 88 78 73 28 26 51 58 44 37 37 41 41 43 45 46 47 50 58 60
20 23 24 17 15 17 15 18 21 24 25 25 29 34 38 43 52 59 70 74 86 78 72 51 40 49 46 34 35 40 39 41 40 43 47 47 56 56
21 20 9 12 11 13 16 17 19 23 26 29 28 31 35 39 42 49 59 62 68 72 86 83 58 16 31 41 20 4 41 36 40 44 43 46 50 53
14 10 9 9 12 15 18 21 21 22 24 27 30 33 36 40 36 35 39 50 52 62 73 75 74 60 56 60 60 60 21 25 35 35 40 46 54 55
5 6 9 13 13 16 21 23 18 15 16 19 24 28 31 35 36 34 34 35 41 47 47 49 54 57 66 63 53 54 61 67 27 22 39 56 51 51
6 10 15 18 21 24 24 19 10 9 12 15 19 24 29 34 34 34 31 31 31 29 33 39 43 39 39 54 40 50 43 56 72 74 67 56 35 33
Wind_Direction_500mb
290 296 303 303 306 305 312 314 322 331 327 328 330 332 328 328 319 298 265 255 255 256 261 253 248 253 245 245 245 251 253 252 251 251 251 254 256 256
276 280 285 297 300 300 300 302 308 321 315 322 330 333 332 325 319 308 285 264 257 252 254 260 242 250 240 242 240 242 248 252 253 252 251 253 254 254
275 277 287 293 297 295 294 294 298 317 312 316 326 335 334 330 323 313 291 275 264 252 250 259 240 239 237 243 244 244 244 250 252 252 252 252 253 253
280 283 284 287 299 300 295 288 288 307 312 310 319 330 335 337 326 320 309 280 272 262 250 250 247 238 237 238 244 247 245 242 249 250 251 252 252 252
296 285 288 293 300 303 299 291 288 296 303 308 315 320 327 334 328 322 314 296 271 269 258 250 245 246 241 245 239 239 244 242 242 247 249 252 251 251
297 292 299 298 295 296 294 293 291 296 298 302 310 315 321 326 323 320 315 309 282 265 265 254 245 246 243 247 241 245 239 242 240 243 247 251 251 251
292 295 299 296 292 294 292 296 293 292 302 303 311 316 315 318 324 318 306 307 299 271 258 257 248 244 238 249 232 239 237 237 241 241 243 248 249 251
298 301 301 295 299 297 293 294 295 294 295 301 310 322 322 320 322 315 306 297 292 272 266 255 252 246 240 240 235 236 236 235 237 239 240 244 247 248
310 301 294 291 296 297 296 291 290 293 294 293 306 321 327 322 315 313 304 284 283 275 258 258 259 253 247 238 236 238 232 233 239 240 244 245 243 245
307 322 303 296 297 297 301 298 296 300 301 294 312 316 321 322 317 310 302 291 279 267 251 254 249 250 247 245 242 234 227 234 240 238 241 244 239 239
305 303 301 292 297 302 302 302 302 302 302 289 308 317 327 323 320 314 300 289 264 254 240 235 239 242 242 242 243 231 233 238 238 234 240 241 234 233
294 298 292 300 304 304 310 313 309 311 307 296 300 320 322 329 330 322 318 292 241 238 236 223 232 233 242 237 237 239 235 229 230 230 234 235 228 226
290 293 301 306 302 305 311 312 315 316 309 304 306 320 329 333 339 332 332 269 235 227 192 226 227 229 225 231 234 235 234 228 228 231 229 229 227 232
292 302 306 303 302 303 306 312 319 315 314 312 317 332 341 344 340 347 355 270 246 239 207 211 230 235 227 220 214 213 226 226 231 233 229 232 225 225
297 294 286 283 289 295 300 312 321 326 328 325 329 339 343 340 349 358 10 312 238 245 220 210 219 229 233 232 224 228 233 228 231 232 232 228 228 232
290 292 281 272 288 294 307 320 327 333 336 334 337 346 351 345 359 13 10 32 343 277 235 218 228 239 238 231 231 234 238 238 239 240 232 233 232 234
286 282 263 275 294 302 312 324 335 336 353 354 348 351 352 354 1 14 20 21 33 42 220 221 228 227 232 232 229 227 236 241 241 241 241 240 237 235
266 257 279 300 311 318 326 343 353 0 7 9 6 4 358 2 4 10 25 30 28 33 46 184 216 223 229 230 228 226 227 230 236 241 240 242 243 241
266 282 301 310 320 320 335 357 2 6 7 6 8 8 3 11 11 9 18 28 37 28 44 38 176 203 213 193 218 220 222 225 224 231 236 241 247 233
273 285 274 295 302 319 329 337 343 350 1 2 360 6 9 11 15 14 19 26 35 37 39 45 51 79 193 192 149 198 228 229 232 233 234 243 246 245
263 226 253 277 302 316 324 328 339 350 355 355 358 2 9 12 17 19 23 29 41 43 43 38 48 58 89 98 91 82 100 225 235 238 230 237 243 240
237 263 276 289 307 324 327 325 324 339 360 9 11 10 14 19 21 24 27 27 34 38 47 51 46 42 53 63 70 74 81 85 103 231 223 224 217 209
281 318 322 319 323 329 329 333 334 1 17 29 32 28 24 27 27 29 40 43 42 43 52 61 56 53 51 42 52 64 67 74 78 79 86 99 168 171
Wind_Speed_850mb
28 31 30 28 27 27 27 29 38 41 57 60 68 67 70 65 62 51 57 64 59 61 65 69 97 94 93 76 82 81 76 75 77 77 75 71 69 65
29 31 29 33 30 33 32 32 31 41 43 62 64 71 73 71 58 56 48 60 64 63 65 68 84 84 90 85 76 75 77 76 79 80 79 77 75 72
28 30 35 34 36 38 38 37 34 40 56 66 59 77 78 71 60 56 54 51 64 69 63 65 76 76 84 85 81 82 80 78 79 80 79 78 77 75
31 30 36 39 40 40 43 44 42 41 53 63 75 74 71 78 75 64 58 53 57 69 68 69 70 79 79 86 87 89 86 77 75 81 81 79 75 74
27 31 33 36 41 43 46 47 46 49 53 64 70 70 79 80 83 79 69 60 59 62 70 69 78 79 83 84 93 88 88 83 75 76 77 77 77 73
28 27 34 40 43 45 47 49 48 50 54 62 71 79 88 83 83 89 85 68 65 58 66 74 74 83 89 85 93 95 90 88 79 76 76 74 75 76
28 34 40 39 40 40 47 51 51 52 54 62 69 79 91 89 86 89 81 92 82 64 66 73 77 76 94 88 97 95 99 85 79 76 74 75 73 70
39 43 50 44 39 37 43 44 43 50 55 57 57 71 75 78 88 84 90 80 88 69 59 74 76 78 77 83 98 89 92 77 75 76 74 74 73 69
42 45 42 44 39 36 38 38 42 44 47 46 57 65 71 82 91 87 92 87 88 87 69 62 57 71 75 76 83 81 96 70 74 70 65 68 70 66
41 30 34 41 36 36 41 41 44 49 47 44 53 63 72 89 90 83 90 90 91 86 74 80 64 69 66 70 68 71 72 74 72 69 66 64 65 62
41 43 34 34 38 38 37 46 54 51 52 44 50 61 76 88 93 88 90 83 87 86 77 72 68 67 61 62 69 69 73 79 69 69 67 61 60 58
46 45 32 31 34 37 42 51 58 61 57 56 58 70 77 95 94 78 86 64 71 57 75 68 68 67 59 61 58 57 64 64 61 59 59 58 58 58
44 34 36 35 36 41 48 55 60 59 60 60 62 69 78 92 107 91 80 37 65 62 20 44 63 67 64 20 57 56 51 59 62 65 58 56 67 64
32 36 38 34 34 41 46 51 60 58 52 50 48 59 84 100 106 91 73 31 36 56 61 40 40 57 65 66 33 33 48 52 62 67 64 58 61 65
31 32 33 34 36 35 42 54 56 44 40 41 40 49 71 91 96 92 75 13 20 29 61 45 52 42 57 71 65 52 50 41 52 52 61 66 67 69
28 30 26 26 31 34 44 47 39 36 36 38 34 39 59 80 90 96 89 59 2 18 38 70 44 41 44 50 56 55 52 52 47 47 61 63 68 72
26 21 22 25 30 42 40 27 28 28 29 33 31 36 45 59 81 87 92 79 69 16 19 45 52 45 45 44 41 43 43 47 51 49 52 52 68 73
19 17 20 28 33 22 21 20 24 25 28 30 32 38 38 49 63 76 82 88 78 73 28 26 51 58 44 37 37 41 41 43 45 46 47 50 58 60
20 23 24 17 15 17 15 18 21 24 25 25 29 34 38 43 52 59 70 74 86 78 72 51 40 49 46 34 35 40 39 41 40 43 47 47 56 56
21 20 9 12 11 13 16 17 19 23 26 29 28 31 35 39 42 49 59 62 68 72 86 83 58 16 31 41 20 4 41 36 40 44 43 46 50 53
14 10 9 9 12 15 18 21 21 22 24 27 30 33 36 40 36 35 39 50 52 62 73 75 74 60 56 60 60 60 21 25 35 35 40 46 54 55
5 6 9 13 13 16 21 23 18 15 16 19 24 28 31 35 36 34 34 35 41 47 47 49 54 57 66 63 53 54 61 67 27 22 39 56 51 51
6 10 15 18 21 24 24 19 10 9 12 15 19 24 29 34 34 34 31 31 31 29 33 39 43 39 39 54 40 50 43 56 72 74 67 56 35 33
Wind_Direction_850mb
290 296 303 303 306 305 312 314 322 331 327 328 330 332 328 328 319 298 265 255 255 256 261 253 248 253 245 245 245 251 253 252 251 251 251 254 256 256
276 280 285 297 300 300 300 302 308 321 315 322 330 333 332 325 319 308 285 264 257 252 254 260 242 250 240 242 240 242 248 252 253 252 251 253 254 254
275 277 287 293 297 295 294 294 298 317 312 316 326 335 334 330 323 313 291 275 264 252 250 259 240 239 237 243 244 244 244 250 252 252 252 252 253 253
280 283 284 287 299 300 295 288 288 307 312 310 319 330 335 337 326 320 309 280 272 262 250 250 247 238 237 238 244 247 245 242 249 250 251 252 252 252
296 285 288 293 300 303 299 291 288 296 303 308 315 320 327 334 328 322 314 296 271 269 258 250 245 246 241 245 239 239 244 242 242 247 249 252 251 251
297 292 299 298 295 296 294 293 291 296 298 302 310 315 321 326 323 320 315 309 282 265 265 254 245 246 243 247 241 245 239 242 240 243 247 251 251 251
292 295 299 296 292 294 292 296 293 292 302 303 311 316 315 318 324 318 306 307 299 271 258 257 248 244 238 249 232 239 237 237 241 241 243 248 249 251
298 301 301 295 299 297 293 294 295 294 295 301 310 322 322 320 322 315 306 297 292 272 266 255 252 246 240 240 235 236 236 235 237 239 240 244 247 248
310 301 294 291 296 297 296 291 290 293 294 293 306 321 327 322 315 313 304 284 283 275 258 258 259 253 247 238 236 238 232 233 239 240 244 245 243 245
307 322 303 296 297 297 301 298 296 300 301 294 312 316 321 322 317 310 302 291 279 267 251 254 249 250 247 245 242 234 227 234 240 238 241 244 239 239
305 303 301 292 297 302 302 302 302 302 302 289 308 317 327 323 320 314 300 289 264 254 240 235 239 242 242 242 243 231 233 238 238 234 240 241 234 233
294 298 292 300 304 304 310 313 309 311 307 296 300 320 322 329 330 322 318 292 241 238 236 223 232 233 242 237 237 239 235 229 230 230 234 235 228 226
290 293 301 306 302 305 311 312 315 316 309 304 306 320 329 333 339 332 332 269 235 227 192 226 227 229 225 231 234 235 234 228 228 231 229 229 227 232
292 302 306 303 302 303 306 312 319 315 314 312 317 332 341 344 340 347 355 270 246 239 207 211 230 235 227 220 214 213 226 226 231 233 229 232 225 225
297 294 286 283 289 295 300 312 321 326 328 325 329 339 343 340 349 358 10 312 238 245 220 210 219 229 233 232 224 228 233 228 231 232 232 228 228 232
290 292 281 272 288 294 307 320 327 333 336 334 337 346 351 345 359 13 10 32 343 277 235 218 228 239 238 231 231 234 238 238 239 240 232 233 232 234
286 282 263 275 294 302 312 324 335 336 353 354 348 351 352 354 1 14 20 21 33 42 220 221 228 227 232 232 229 227 236 241 241 241 241 240 237 235
266 257 279 300 311 318 326 343 353 0 7 9 6 4 358 2 4 10 25 30 28 33 46 184 216 223 229 230 228 226 227 230 236 241 240 242 243 241
266 282 301 310 320 320 335 357 2 6 7 6 8 8 3 11 11 9 18 28 37 28 44 38 176 203 213 193 218 220 222 225 224 231 236 241 247 233
273 285 274 295 302 319 329 337 343 350 1 2 360 6 9 11 15 14 19 26 35 37 39 45 51 79 193 192 149 198 228 229 232 233 234 243 246 245
263 226 253 277 302 316 324 328 339 350 355 355 358 2 9 12 17 19 23 29 41 43 43 38 48 58 89 98 91 82 100 225 235 238 230 237 243 240
237 263 276 289 307 324 327 325 324 339 360 9 11 10 14 19 21 24 27 27 34 38 47 51 46 42 53 63 70 74 81 85 103 231 223 224 217 209
281 318 322 319 323 329 329 333 334 1 17 29 32 28 24 27 27 29 40 43 42 43 52 61 56 53 51 42 52 64 67 74 78 79 86 99 168 171